Location: Brantford
(43.1330°N, 80.2670°W)
Time: 07:14:36
(UTC-05:00)

ISS - Pass Details

Date: 28 October 2019
Orbit: 412 x 421 km, 51.6° (Epoch: 14 November)

Event Time Altitude Azimuth Distance (km) Brightness Sun altitude
Exits shadow 06:55:26 16° 272° (W) 1,182 -2.1 -10.6°
Maximum altitude 06:57:45 39° 336° (NNW) 651 -3.1 -10.2°
Drops below altitude 10° 07:00:57 10° 47° (NE) 1,507 -0.4 -9.6°
Sets 07:03:09 0° 55° (NE) 2,372 0.8 -9.2°
